EW3721 Hamden CT US current weather conditions

sailwx.info

Wind from 169

Air temperature -0.0° C
Dewpoint -2.5° C

Last reported at 2019-Dec-06 14:04 UTC.
Time now 2019-Dec-06 15:16 UTC

Location: N 41°22' W 072°57'.
View on Google Maps.

See reports from other nearby stations

  
Tides and Currents Weather Stations Pressure Air Temp Water Temp Dewpoint Dewpoint Depression Visibility Wind Speed Wind Dir Waves Ship Positions
date/time (UTC)wind fromknots sea level pressurealtimeterstation pressurevisibilityair tempwater tempwave heightnotes
2019-Dec-06 14:04 169 -0.0
2019-Dec-06 13:54 194 -0.6
2019-Dec-06 13:44 192 -0.6
2019-Dec-06 13:34 175 -0.6
2019-Dec-06 13:24 182 -0.6
2019-Dec-06 13:14 182 -1.1
2019-Dec-06 13:04 185 -1.1
2019-Dec-06 12:54 157 -1.1
2019-Dec-06 12:44 157 -1.1
2019-Dec-06 12:34 157 -1.1
2019-Dec-06 12:24 157 -1.1
2019-Dec-06 12:14 157 -1.7
2019-Dec-06 12:04 157 -1.7
2019-Dec-06 11:54 157 -1.7
2019-Dec-06 11:44 157 -1.7
2019-Dec-06 11:34 157 -1.7
2019-Dec-06 11:24 157 -1.7
2019-Dec-06 11:14 157 -1.7
2019-Dec-06 11:04 157 -1.7
2019-Dec-06 10:54 157 -1.7
2019-Dec-06 10:44 252 -1.7
2019-Dec-06 10:34 252 -1.7
2019-Dec-06 10:24 252 -1.7
2019-Dec-06 10:14 185 0 gusting 1 -1.7
2019-Dec-06 10:04 259 -2.2
2019-Dec-06 09:54 259 -2.2
2019-Dec-06 09:44 259 -2.2
2019-Dec-06 09:34 265 -2.2
2019-Dec-06 09:24 264 -2.2
2019-Dec-06 09:14 264 -2.8
2019-Dec-06 09:04 262 -2.8
2019-Dec-06 08:54 259 -2.8
2019-Dec-06 08:44 198 -2.8
2019-Dec-06 08:34 140 -2.8
2019-Dec-06 08:24 250 -2.8
2019-Dec-06 08:14 250 -2.8
2019-Dec-06 08:04 198 -2.8
2019-Dec-06 07:54 198 -2.2
2019-Dec-06 07:44 198 -2.2
2019-Dec-06 07:34 198 -2.2
2019-Dec-06 07:24 198 -2.2
2019-Dec-06 07:14 198 -1.7
2019-Dec-06 07:04 198 -1.7
2019-Dec-06 06:54 198 -1.7
2019-Dec-06 06:44 198 -1.7
2019-Dec-06 06:34 197 -1.1
2019-Dec-06 06:24 197 -1.1
2019-Dec-06 06:14 197 -1.1
2019-Dec-06 06:04 197 -0.6
2019-Dec-06 05:54 197 -0.6
2019-Dec-06 05:44 197 -0.6
2019-Dec-06 05:34 196 -0.6
2019-Dec-06 05:24 247 0 gusting 2 -0.6
2019-Dec-06 05:14 238 0 gusting 2 -0.6
2019-Dec-06 05:04 231 -0.6
2019-Dec-06 04:54 207 0 gusting 4 -0.6
2019-Dec-06 04:44 215 -0.6
2019-Dec-06 04:34 217 -0.6
2019-Dec-06 04:24 217 -0.6
2019-Dec-06 04:14 216 -0.0
2019-Dec-06 04:04 216 -0.0
2019-Dec-06 03:54 217 -0.0
2019-Dec-06 03:44 217 0.6
2019-Dec-06 03:34 219 0.6
2019-Dec-06 03:24 219 0 gusting 1 0.6
2019-Dec-06 03:14 097 1.1
2019-Dec-06 03:04 096 1.1
2019-Dec-06 02:54 241 1.1
2019-Dec-06 02:44 255 1.1
2019-Dec-06 02:34 259 1.1
2019-Dec-06 02:24 259 1.1
2019-Dec-06 02:14 283 1.1
2019-Dec-06 02:04 220 0 gusting 2 1.1
2019-Dec-06 01:54 229 0 gusting 2 1.1
2019-Dec-06 01:44 240 1.1
2019-Dec-06 01:34 240 1.1
2019-Dec-06 01:24 245 1.1
2019-Dec-06 01:14 197 0 gusting 2 0.6
2019-Dec-06 01:04 197 0.6
2019-Dec-06 00:54 219 0.6
2019-Dec-06 00:44 217 0.6
2019-Dec-06 00:34 246 0.6
2019-Dec-06 00:24 234 0.6
2019-Dec-06 00:14 090 0.6
2019-Dec-06 00:04 092 0.6
2019-Dec-05 23:54 092 1.1
2019-Dec-05 23:44 092 1.1
2019-Dec-05 23:34 092 1.1
2019-Dec-05 23:24 092 1.1
2019-Dec-05 23:14 096 1.7
2019-Dec-05 23:04 096 1.7
2019-Dec-05 22:54 096 1.7
2019-Dec-05 22:44 096 2.2
2019-Dec-05 22:34 096 2.2
2019-Dec-05 22:24 252 0 gusting 4 2.8
2019-Dec-05 22:14 238 1 gusting 8 3.3
2019-Dec-05 22:04 252 0 gusting 2 3.3
2019-Dec-05 21:54 167 1 gusting 8 3.3
2019-Dec-05 21:44 215 3.3
2019-Dec-05 21:34 222 0 gusting 6 3.3
2019-Dec-05 21:24 220 0 gusting 6 3.3
2019-Dec-05 21:14 201 0 gusting 12 3.9
2019-Dec-05 21:04 099 1 gusting 4 3.9
2019-Dec-05 20:54 115 3.9
2019-Dec-05 20:44 106 2 gusting 10 3.9
2019-Dec-05 20:34 227 1 gusting 5 3.9
2019-Dec-05 20:24 105 0 gusting 10 3.9
2019-Dec-05 20:14 216 2 gusting 6 3.9
2019-Dec-05 20:04 182 0 gusting 2 3.9
2019-Dec-05 19:54 240 2 gusting 6 3.9
2019-Dec-05 19:44 263 3.9
2019-Dec-05 19:34 251 3.9
2019-Dec-05 19:24 097 3.9
2019-Dec-05 19:14 216 3.9
2019-Dec-05 19:04 248 0 gusting 8 3.9
2019-Dec-05 18:54 212 2 gusting 10 3.9
2019-Dec-05 18:44 220 1 gusting 4 3.9
2019-Dec-05 18:34 093 3.9
2019-Dec-05 18:24 123 3.9
2019-Dec-05 18:14 098 3.9
2019-Dec-05 18:04 247 3.9
2019-Dec-05 17:54 163 3.9
2019-Dec-05 17:44 253 0 gusting 5 3.9
2019-Dec-05 17:34 238 0 gusting 5 3.9
2019-Dec-05 17:24 200 3.9
2019-Dec-05 17:14 246 3.9
2019-Dec-05 17:04 221 3.9
2019-Dec-05 16:54 250 4.4
2019-Dec-05 16:44 227 4.4
2019-Dec-05 16:34 253 4.4
2019-Dec-05 16:24 254 5.0
2019-Dec-05 16:14 358 2 gusting 10 5.0
2019-Dec-05 16:04 249 2 gusting 6 5.0
2019-Dec-05 15:54 251 5.0
2019-Dec-05 15:44 216 5.0
2019-Dec-05 15:34 221 1 gusting 6 4.4
2019-Dec-05 15:24 220 4.4
2019-Dec-05 15:14 215 1 gusting 6 3.9
2019-Dec-05 15:04 161 3.3
2019-Dec-05 14:54 249 0 gusting 4 3.3
2019-Dec-05 14:44 217 3.3
2019-Dec-05 14:34 175 3.3
2019-Dec-05 14:24 199 0 gusting 10 3.3
2019-Dec-05 14:14 225 1 gusting 2 3.3
2019-Dec-05 14:04 236 2.8
2019-Dec-05 13:54 125 2.8
2019-Dec-05 13:44 250 2.2
2019-Dec-05 13:34 199 2.2
2019-Dec-05 13:24 131 1.7
2019-Dec-05 13:14 253 1.7
2019-Dec-05 13:04 097 1.7
2019-Dec-05 12:54 233 0 gusting 6 1.1
2019-Dec-05 12:44 244 1.1
2019-Dec-05 12:34 236 1.1
2019-Dec-05 12:24 242 1.1
2019-Dec-05 12:14 253 1.1
2019-Dec-05 12:04 215 1.1
2019-Dec-05 11:54 227 1.1
2019-Dec-05 11:44 238 1.1
2019-Dec-05 11:34 212 0.6
2019-Dec-05 11:24 098 0.6
2019-Dec-05 11:14 183 0.6
2019-Dec-05 11:04 250 0 gusting 1 -0.0
2019-Dec-05 10:54 251 -0.0
2019-Dec-05 10:44 240 -0.0
2019-Dec-05 10:34 103 -0.0
2019-Dec-05 10:24 101 -0.0
2019-Dec-05 10:14 253 -0.0
2019-Dec-05 10:04 217 -0.6
2019-Dec-05 09:54 196 -0.6
2019-Dec-05 09:44 236 -0.6
2019-Dec-05 09:34 226 -1.1
2019-Dec-05 09:24 222 -1.1
2019-Dec-05 09:14 216 -1.1
2019-Dec-05 09:04 210 -0.6
2019-Dec-05 08:54 210 -0.6
2019-Dec-05 08:44 210 -0.6
2019-Dec-05 08:34 210 -0.6
2019-Dec-05 08:24 210 -0.6
2019-Dec-05 08:14 210 -0.6
2019-Dec-05 08:04 210 -0.6
2019-Dec-05 07:54 210 -0.6
2019-Dec-05 07:44 210 -0.0
2019-Dec-05 07:34 210 -0.0
2019-Dec-05 07:24 213 -0.0
2019-Dec-05 07:14 213 -0.0
2019-Dec-05 07:04 213 -0.0
2019-Dec-05 06:54 213 -0.0
2019-Dec-05 06:44 213 -0.0
2019-Dec-05 06:34 213 -0.6
2019-Dec-05 06:24 212 -0.6
2019-Dec-05 06:14 212 -0.6
2019-Dec-05 06:04 212 -0.6
2019-Dec-05 05:54 212 -0.6
2019-Dec-05 05:44 212 -0.6
2019-Dec-05 05:34 212 -0.6
2019-Dec-05 05:24 212 -0.6
2019-Dec-05 05:14 212 -0.6
2019-Dec-05 05:04 212 -0.6
2019-Dec-05 04:54 212 -0.6
2019-Dec-05 04:44 212 -0.0
2019-Dec-05 04:34 212 -0.0
2019-Dec-05 04:24 212 -0.0
2019-Dec-05 04:14 219 -0.0
2019-Dec-05 04:04 223 -0.0
2019-Dec-05 03:54 223 0.6
2019-Dec-05 03:44 223 0.6
2019-Dec-05 03:34 223 0.6
2019-Dec-05 03:24 223 0.6
2019-Dec-05 03:14 223 0.6
2019-Dec-05 03:04 223 1.1
2019-Dec-05 02:54 223 1.1
2019-Dec-05 02:44 207 1.1
2019-Dec-05 02:34 231 1.1
2019-Dec-05 02:24 224 1.1
2019-Dec-05 02:14 206 1.1
2019-Dec-05 02:04 252 1.1
2019-Dec-05 01:54 247 1.1
2019-Dec-05 01:44 230 1.1
2019-Dec-05 01:34 208 1.1
2019-Dec-05 01:24 248 1.1
2019-Dec-05 01:14 239 1.1
2019-Dec-05 01:04 225 1.7
2019-Dec-05 00:54 187 1.7
2019-Dec-05 00:44 224 1.7
2019-Dec-05 00:34 214 1.7
2019-Dec-05 00:24 205 1.7
2019-Dec-05 00:14 225 1.7
2019-Dec-05 00:04 248 1.7
2019-Dec-04 23:54 210 1.7
2019-Dec-04 23:44 209 1.7
2019-Dec-04 23:34 227 1.7
2019-Dec-04 23:24 213 1.7
2019-Dec-04 23:14 211 1.7
2019-Dec-04 23:04 220 1.7
2019-Dec-04 22:54 234 1.7
2019-Dec-04 22:44 211 1.7
2019-Dec-04 22:34 234 1.7
2019-Dec-04 22:24 219 1.7
2019-Dec-04 22:14 191 1.7
2019-Dec-04 22:04 191 2.2
2019-Dec-04 21:54 222 2.2
2019-Dec-04 21:44 184 2.2
2019-Dec-04 21:34 241 2.2
2019-Dec-04 21:24 241 2.2
2019-Dec-04 21:14 228 2.8
2019-Dec-04 21:04 224 2.8
2019-Dec-04 20:54 213 2.8
2019-Dec-04 20:44 213 2.8
2019-Dec-04 20:34 213 2.8
2019-Dec-04 20:24 210 3.3
2019-Dec-04 20:14 210 3.3
2019-Dec-04 20:04 211 3.3
2019-Dec-04 19:54 202 3.3
2019-Dec-04 19:44 205 3.3
2019-Dec-04 19:34 210 3.3
2019-Dec-04 19:24 208 3.3
2019-Dec-04 19:14 191 3.3
2019-Dec-04 19:04 213 3.3
2019-Dec-04 18:54 227 3.3
2019-Dec-04 18:44 190 2.8
2019-Dec-04 18:34 192 2.8
2019-Dec-04 18:24 207 2.8
2019-Dec-04 18:14 190 2.8
2019-Dec-04 18:04 242 2.8
2019-Dec-04 17:54 190 2.8
2019-Dec-04 17:44 221 2.8
2019-Dec-04 17:34 222 2.8
2019-Dec-04 17:24 219 2.8
2019-Dec-04 17:14 238 2.8
2019-Dec-04 17:04 247 2.2
2019-Dec-04 16:54 222 2.8
2019-Dec-04 16:44 196 2.2
2019-Dec-04 16:34 228 2.2
2019-Dec-04 16:24 221 2.2
2019-Dec-04 16:14 184 2.2
2019-Dec-04 16:04 187 1.7
2019-Dec-04 15:54 199 1.7
2019-Dec-04 15:44 094 0 gusting 2 1.7
2019-Dec-04 15:34 206 1.1
2019-Dec-04 15:24 221 1.1
2019-Dec-04 15:14 202 0.6
2019-Dec-04 15:04 213 0.6